Location: Rancho Cucamonga
(34.1064°N, 117.5931°W)
Time: 05:45:31
(UTC+00:00)

Daily predictions for brighter satellites

Satellite Brightness Start Highest point End
(mag) Time Altitude Azimuth Time Altitude Azimuth Time Altitude Azimuth
CBERS-1 4.5 01:09:03 10° S 01:14:07 69° WSW 01:19:14 10° NNW
SL-16 R/B 3.8 01:09:10 10° N 01:14:57 42° WNW 01:20:41 10° SW
Cosmos 2360 4.5 01:10:59 10° S 01:16:27 49° ESE 01:21:56 10° NNE
Thor Agena Rocket 3.6 01:12:01 10° SSE 01:17:16 88° ENE 01:22:30 10° NNW
Cosmos 1782 2.5 01:15:38 10° S 01:19:11 61° E 01:22:45 10° NNE
COSMO-SKYMED 1 3.9 01:16:38 10° NE 01:19:35 19° E 01:22:32 10° SE
H-2A R/B 2.6 01:20:24 10° SSW 01:21:52 17° SSE 01:24:11 10° ESE
Cosmos 2098 Rocket 2.6 01:22:19 10° S 01:25:37 58° E 01:29:30 10° NNE
Lacrosse 5 rocket 3.6 01:24:06 10° WNW 01:26:19 15° NW 01:28:32 10° N
CZ-2D R/B 2.8 01:23:20 10° SSE 01:26:23 52° ENE 01:29:26 10° N
Lacrosse 4 Rocket 3.9 01:25:02 10° W 01:27:44 17° NW 01:30:25 10° NNW
Cosmos 1758 Rocket 3.7 01:26:00 10° N 01:30:10 47° E 01:34:17 10° SSE
IRS-P3 4.3 01:25:55 10° SE 01:31:00 48° ENE 01:36:06 10° N
Cosmos 2266 Rocket 4.4 01:27:25 10° NNE 01:33:02 36° ENE 01:38:31 10° SE
CENTAUR R/B 4.3 01:32:31 10° W 01:36:42 21° NW 01:41:36 10° N
CZ-2D R/B 4.5 01:33:39 10° SE 01:37:06 25° ENE 01:40:33 10° NNE
Intercosmos 24 3.6 01:34:57 10° N 01:38:46 87° WSW 01:42:17 10° S
BREEZE M DEB (TANK) 4.2 01:37:56 10° W 01:39:47 16° NW 01:41:14 10° N
Cosmos 1503 Rocket 4.2 01:36:44 10° S 01:41:51 53° ESE 01:46:57 10° NNE
Cosmos 1743 2.7 01:39:58 10° N 01:43:04 39° E 01:46:06 10° SSE
IRIDIUM 104 4.4 01:38:38 10° N 01:43:47 58° E 01:48:54 10° SSE
Gbstr 26 Del rocket 3.3 01:41:42 10° SSW 01:45:41 42° SE 01:47:37 23° ENE
Cosmos 1354 Rocket 4.5 01:42:03 10° S 01:46:56 39° E 01:50:46 15° NE
Meteor 1-20 Rocket 4.4 01:45:06 10° N 01:50:18 44° ENE 01:55:29 10° SSE
Cosmos 1697 Rocket 3.0 01:46:06 10° S 01:51:21 43° ESE 01:55:09 18° NE
IRIDIUM 114 4.2 01:47:42 10° N 01:52:55 73° E 01:58:07 10° S
Cosmos 1626 Rocket 3.9 01:51:34 10° NNW 01:55:51 65° W 02:00:05 10° S
Cosmos 1606 Rocket 3.7 01:52:27 10° SSE 01:56:40 51° E 02:00:24 13° NNE
Okean 1-7 Rocket 3.9 01:55:07 10° N 01:59:16 41° E 02:03:22 10° SSE
SJ-6F 4.4 01:56:48 10° S 02:00:43 77° WSW 02:04:41 10° NNW
Resurs 1-3 4.0 01:57:12 10° SE 02:01:08 37° ENE 02:05:06 10° N
IRIDIUM 103 4.3 01:56:51 10° N 02:02:06 90° ESE 02:07:19 10° S
ISS -0.3 02:01:39 10° WSW 02:02:55 12° SW 02:04:12 10° SSW
Cosmos 1733 3.4 02:02:46 11° NNW 02:04:37 33° W 02:06:30 10° SSW
ATLAS 5 CENTAUR R/B 4.2 01:58:54 10° SSW 02:04:38 67° ESE 02:28:22 10° NE
Cosmos 1777 Rocket 4.2 02:02:35 10° SSW 02:07:48 70° WNW 02:13:03 10° NNE
Cosmos 1655 Rocket 4.4 02:04:29 10° N 02:10:14 38° ENE 02:15:56 10° SE
Cosmos 1570 Rocket 4.1 02:04:54 10° NNW 02:10:15 81° WSW 02:15:32 10° SSE
Meteor 1-25 Rocket 4.3 02:07:46 10° N 02:13:30 56° E 02:19:08 10° SSE
ARIANE 6 FM1 Upper Stage 3.4 02:09:42 10° NW 02:13:36 51° WSW 02:17:33 10° SSE
SKYMED 2 4.4 02:13:13 10° N 02:17:25 51° WNW 02:21:37 10° SSW
NOSS 3-2 (C) 3.5 02:13:55 10° SW 02:18:38 56° NW 02:22:24 19° NNE
Cosmos 1726 Rocket 3.5 02:20:27 10° S 02:25:02 81° E 02:27:31 28° N
SPOT 1/Viking Rocket 3.7 02:21:21 10° S 02:26:30 73° WSW 02:31:43 10° NNW
Cosmos 1461 3.2 02:23:31 10° SW 02:27:17 57° WNW 02:28:17 42° N
Helios 1A Rocket 2.9 02:28:43 45° NNW 02:29:25 57° WNW 02:32:45 10° SSW
Cosmos 2297 Rocket 2.1 02:24:50 10° NNW 02:30:29 66° ENE 02:36:05 10° SSE
OceanSat 1 rocket 4.5 02:26:02 10° SSE 02:30:47 66° ENE 02:35:30 10° N
NOAA 6 3.9 02:26:02 10° SSE 02:31:02 58° ENE 02:36:03 10° N
Cosmos 1933 4.5 02:31:59 10° SSW 02:35:36 40° W 02:38:04 18° NNW
NOSS 2-3 (E) 3.4 02:32:03 10° SSW 02:35:21 62° SSW 02:35:21 62° SSW
Cosmos 2151 4.2 02:35:13 10° NNW 02:39:06 40° W 02:42:59 10° SSW
NOSS 2-3 (D) 3.7 02:37:01 10° SSW 02:40:05 53° SSW 02:40:05 53° SSW
YAOGAN 1 2.8 02:37:14 10° S 02:41:26 66° WSW 02:45:41 10° NNW
Meteor 2-20 4.3 02:36:13 10° S 02:42:22 89° ESE 02:47:21 17° N
BREEZE M DEB (TANK) 3.6 02:37:34 10° NW 02:42:21 35° NNW 02:42:21 35° NNW
CZ-4C R/B 3.3 02:36:45 10° NNW 02:43:51 44° NE 02:44:13 44° ENE
PSLV R/B 4.0 02:47:43 10° S 02:55:18 12° NNW 02:55:35 10° NNW
Cosmos 1980 Rocket 2.3 02:46:04 10° S 02:50:51 56° SSE 02:50:51 56° SSE
COSMO-SKYMED 1 4.4 02:52:03 14° NNW 02:54:50 26° WNW 02:58:17 10° SW
Intelsat 5-1 Rocket 4.3 02:59:55 10° SW 03:01:05 14° SSW 03:01:05 14° SSW
Meteor 2-20 Rocket 4.4 02:59:00 10° S 03:05:26 85° W 03:06:42 60° N
USA 238 DEB 3.5 03:11:15 10° SW 03:16:40 72° WSW 03:16:40 72° WSW
USA 238 3.5 03:11:21 10° SW 03:16:43 72° WSW 03:16:43 72° WSW
Cosmos 2227 Rocket 4.3 03:15:26 10° NNW 03:16:24 15° NNW 03:16:24 15° NNW
ATLAS 2A CENTAUR R/B 4.0 03:11:49 10° W 03:21:15 31° SSW 03:21:47 31° SSW
CZ-4C R/B 4.4 04:24:56 10° NW 04:29:16 33° WNW 04:29:16 33° WNW
Atlas Centaur 2 4.4 11:09:32 28° SE 11:09:32 28° SE 11:13:22 10° ESE
CZ-3 R/B 3.8 11:08:45 66° SW 11:11:27 72° S 11:21:48 10° ESE
ATLAS CENTAUR Rocket 3.8 11:53:26 25° SSE 11:53:26 25° SSE 11:58:08 10° E
